Poplar Bluff, MO

9:15 PM CDT on July 18, 2019 (GMT -0500)
Poplar Bluff Municipal

Weather History for KPOF - May, 2019

Change the Weather History Date:

Sunday, May 26, 2019

  Actual Average Record
Temperature  
Mean Temperature 79 °F -  
Max Temperature 89 °F 81 °F 96 °F (2012)
Min Temperature 70 °F 59 °F 38 °F (1925)
Cooling Degree Days 14    
Growing Degree Days 29 (Base 50)    
Moisture  
Dew Point 70 °F    
Average Humidity 77    
Maximum Humidity 97    
Minimum Humidity 53    
Precipitation  
Precipitation 0.00 in - - ()
Sea Level Pressure  
Sea Level Pressure 30.03 in    
Wind  
Wind Speed 5 mph (SW)    
Max Wind Speed 15 mph    
Max Gust Speed 22 mph    
Visibility 10 miles    
Events Rain    
Averages and records for this station are not official NWS values.
T = Trace of Precipitation, MM = Missing Value Source: NWS Daily Summary

Daily Weather History Graph

Daily Weather History Graph

Search for Another Location

Airport or City:

Astronomy

May. 26, 2019 Rise Set
Actual Time 5:46 AM CDT 8:10 PM CDT
Civil Twilight 5:16 AM CDT 8:40 PM CDT
Nautical Twilight 4:40 AM CDT 9:16 PM CDT
Astronomical Twilight 3:59 AM CDT 9:57 PM CDT
Moon 1:46 AM CDT (5/26) 12:40 PM CDT (5/26)
Length of Visible Light 15h 23m
Length of Day
14h 23m
Waning Gibbous, 50% of the Moon is Illuminated
May 26
Waning Gibbous
Jun 3
New
Jun 10
First Quarter
Jun 17
Full
Jun 25
Last Quarter

Hourly Weather History & Observations

Time (CDT) Temp. Heat Index Dew Point Humidity Pressure Visibility Wind Dir Wind Speed Gust Speed Precip Events Conditions
12:53 AM 72.0 °F - 69.1 °F 91% 30.02 in 10.0 mi SSW 3.5 mph - N/A   Clear
1:53 AM 72.0 °F - 69.1 °F 91% 30.02 in 10.0 mi SSW 3.5 mph - N/A   Clear
2:53 AM 72.0 °F - 69.1 °F 91% 30.03 in 10.0 mi SSW 3.5 mph - N/A   Clear
3:53 AM 70.0 °F - 69.1 °F 97% 30.04 in 9.0 mi Calm Calm - 0.00 in Rain Light Rain
4:53 AM 70.0 °F - 69.1 °F 97% 30.04 in 8.0 mi Calm Calm - 0.00 in   Mostly Cloudy
6:53 AM 72.0 °F - 70.0 °F 93% 30.04 in 10.0 mi South 5.8 mph - N/A   Partly Cloudy
7:53 AM 75.9 °F - 71.1 °F 85% 30.03 in 10.0 mi South 9.2 mph - N/A   Clear
8:53 AM 78.1 °F - 72.0 °F 81% 30.03 in 10.0 mi SSW 12.7 mph 19.6 mph N/A   Clear
9:53 AM 81.0 °F 84.4 °F 70.0 °F 69% 30.05 in 10.0 mi SW 15.0 mph - N/A   Mostly Cloudy
10:53 AM 82.0 °F 86.3 °F 71.1 °F 69% 30.07 in 10.0 mi SW 6.9 mph - N/A   Overcast
11:53 AM 84.0 °F 89.6 °F 72.0 °F 67% 30.08 in 10.0 mi SW 12.7 mph 19.6 mph N/A   Mostly Cloudy
12:53 PM 84.0 °F 88.4 °F 70.0 °F 63% 30.07 in 10.0 mi West 8.1 mph 18.4 mph N/A   Scattered Clouds
1:53 PM 87.1 °F 92.8 °F 71.1 °F 59% 30.06 in 10.0 mi West 9.2 mph 18.4 mph N/A   Clear
2:53 PM 88.0 °F 92.1 °F 69.1 °F 53% 30.05 in 10.0 mi West 11.5 mph 19.6 mph N/A   Partly Cloudy
3:53 PM 87.1 °F 90.6 °F 68.0 °F 53% 30.03 in 10.0 mi West 8.1 mph 21.9 mph N/A   Clear
4:53 PM 87.1 °F 91.3 °F 69.1 °F 55% 30.01 in 10.0 mi WSW 5.8 mph - N/A   Clear
5:53 PM 86.0 °F 90.1 °F 69.1 °F 57% 30.01 in 10.0 mi West 8.1 mph - N/A   Clear
6:53 PM 84.0 °F 87.8 °F 69.1 °F 61% 30.00 in 7.0 mi WSW 3.5 mph - N/A   Clear
7:53 PM 80.1 °F 83.8 °F 72.0 °F 76% 29.99 in 10.0 mi Calm Calm - N/A   Clear
8:53 PM 77.0 °F - 72.0 °F 84% 29.99 in 10.0 mi Calm Calm - N/A   Clear
9:53 PM 75.0 °F - 72.0 °F 90% 30.00 in 10.0 mi Calm Calm - N/A   Clear
10:53 PM 73.9 °F - 73.0 °F 97% 30.01 in 10.0 mi Calm Calm - N/A   Clear
11:53 PM 73.9 °F - 72.0 °F 93% 30.00 in 10.0 mi Calm Calm - N/A   Clear